HAWK-3C

Last updated on Fri Dec 29 2023 00:03:29 GMT+0000 (Coordinated Universal Time)

1 48948U 21059BX 23361.89084676 .00009406 00000+0 38712-3 0 9995 2 48948 97.6329 140.8105 0013338 333.8745 26.1818 15.24277739138758
UTC large
Height (km)
Speed (km/s)
/
Latitude / Longitude
Inclination (degrees)
Orbital Period (minutes)
Azimuth
Elevation
Range (km)
Doppler Factor

Next 0 passes for location: London (51.5072 / 0.1276)

Sorry there are no passes over London.